User: anonymous   Login
Location: Santa Cristina
(46.5667°N, 11.7167°E)
Time: 03:47:47
(UTC+00:00)
Language:

IDEFIX/ARIANE 42P - Orbit

View from above orbital plane
View from above orbital plane
View from above satellite
View from above satellite

Ground track
Ground track

The orbit data is extracted from the following two-line orbital elements,

1 27422U 02021B   21169.43813827  .00000016  00000-0  22769-4 0  9994
2 27422  98.4025 122.3987 0011171 226.7812 133.2438 14.29322059997442
Epoch (UTC): 18 June 2021 10:30:55
Eccentricity: 0.0011171
inclination: 98.4025°
perigee height: 786 km
apogee height: 802 km
right ascension of ascending node: 122.3987°
argument of perigee: 226.7812°
revolutions per day: 14.29322059
mean anomaly at epoch: 133.2438°
orbit number at epoch: 99744

The dashed part of the orbit path shows where the satellite is in the earth's shadow,  

DLR